SL-16 DEB, 27749

Orbit data source: Space-Track

SL-16 DEB, 27749 is space debris in LEO originally from a launch on Fri, 25 Dec 1992 UTC launched from the Tyuratam Missile And Space Complex (TTMTR). Debris objects in space refer to the collection of defunct objects orbiting the Earth. Examples of debris include non-operational satellites, rocket bodies, and fragments generated from explosions, collisions, or faulty payload assembly.

Loading next visibility...
Identifier
27749, 1992-093JL
Orbit
LEO
Country
Flag of CISCIS
Related business
Manufacturer
Unknown
Mission
Spacecraft
Bus & Motor
Unknown
Mass
Unknown
Launch date (UTC)
1992-12-25 (33 years ago)
Launch vehicle
Unknown
Launch site
Tyuratam Missile And Space Complex (TTMTR)
Object type
Payload
Rocket body
Debris
Shape & HBR
Unknown shape, 0.1 m
Radar Cross Section
Small (<0.1 m²)

Expand to show TLE details & history
Last TLE update: 1 day ago

TLE from 1 day ago
0 SL-16 DEB
1 27749U 92093JL  26126.55490797  .00002513  00000-0  93875-3 0  9991
2 27749  71.0995 322.6512 0093340 217.0419 174.6324 14.30411030288424
Epoch: 2026-05-06T13:19Z
TLE epoch observation values (Epoch: 2026-05-06T13:19:04.048Z)
Latitude
29.93858°
Longitude
-90.21745°
Altitude
860.236 km
Speed
7.391 km/s
True Right ascension
22h 15m 51s
True Declination
29° 47' 32"
Sunlit
Object was in daylight at epoch
Visualization orbit readout
Latitude
Unknown
Longitude
Unknown
Altitude
Unknown
Speed
Unknown
Apparent Right ascension
Unknown
Apparent Declination
Unknown
Sunlit
N/A
Visualization observer readout
Local Sidereal Time
02:02:27
Azimuth
Unknown
Elevation
Unknown
Doppler factor
Unknown
Orbital elements
Apogee altitude
855.148 km
Perigee altitude
721.366 km
Semi-major axis
7,166.394 km
Eccentricity
0.00933
Inclination
71.0995°
RAAN
322.6512°
Arg. of periapsis
217.0419°
True anomaly
174.73131°
Mean anomaly
174.6324°
Eccentric anomaly
174.68197°
Mean motion
3.5776 °/min
Orbital period
100.63 mins
BSTAR
0.00093875
Loading maneuver chart data...
Computing Atmospheric mass density...
Loading historical data...
Loading historical data...
Loading historical data...
Loading historical data...
Loading historical data...
Loading historical data...
Loading historical data...

Documentation

Showing up to 5 results
|